Showing default

DROID-001, 56965

Orbit data source: Space-Track

DROID-001, 56965 is a payload satellite owned by Turion Space (US) in SSO that was launched on Mon, 12 Jun 2023 UTC via an FALCON 9 launch vehicle from the Air Force Western Test Range (AFWTR). Payload-class satellites include a variety of spacecraft equipped with specific instruments for various scientific and technological missions. These include communications satellites like Starlink; space stations such as the ISS; scientific satellites like the Hubble; Earth observation satellites from companies like Planet Labs, Umbra, and HawkEye 360; GPS; miniature CubeSats for education and research; and military/defense satellites.

Loading next visibility...
Identifier
56965, 2023-084AK
Orbit
SSO
Country
Flag of USUS
Related business
Manufacturer
NanoAvionics
Mission
Operational Commercial Technology
Bus & Motor
CUBESAT MP42H, Unknown motor
Mass
32 kg wet, 32 kg dry
Launch date (UTC)
2023-06-12 (2 years ago)
Launch vehicle
FALCON 9
Launch site
Air Force Western Test Range (AFWTR)
Object type
Payload
Rocket body
Debris
Shape & HBR
Box + 2 Pan, 0.5 m
Radar Cross Section
0.257 m², Medium (>0.1 m² and < 1m²)

Expand to show TLE details & history
Last TLE update: 7 hours ago

TLE from 7 hours ago
0 DROID-001
1 56965U 23084AK  25259.18683419  .00054946  00000-0  82109-3 0  9992
2 56965  97.5806  37.6272 0006659 171.8115 188.3248 15.54830695126239
Epoch: 2025-09-16T04:29Z
TLE epoch observation values (Epoch: 2025-09-16T04:29:02.474Z)
Latitude
-0.00003°
Longitude
-25.01385°
Altitude
410.246 km
Speed
7.662 km/s
True Right ascension
02h 30m 30s
True Declination
0° 00' 00"
Sunlit
Object was in full shadow at epoch
Visualization orbit readout
Latitude
Unknown
Longitude
Unknown
Altitude
Unknown
Speed
Unknown
Apparent Right ascension
Unknown
Apparent Declination
Unknown
Sunlit
N/A
Visualization observer readout
Local Sidereal Time
03:54:31
Azimuth
Unknown
Elevation
Unknown
Doppler factor
Unknown
Orbital elements
Apogee altitude
404.085 km
Perigee altitude
395.059 km
Semi-major axis
6,777.709 km
Eccentricity
0.00067
Inclination
97.5806°
RAAN
37.6272°
Arg. of periapsis
171.8115°
True anomaly
188.31376°
Mean anomaly
188.3248°
Eccentric anomaly
188.31928°
Mean motion
3.88972 °/min
Orbital period
92.55 mins
BSTAR
0.00082109
Loading maneuver chart data...
Computing Atmospheric mass density...
Loading historical data...
Loading historical data...
Loading historical data...
Loading historical data...
Loading historical data...
Loading historical data...
Loading historical data...

Documentation

Showing up to 5 results
|